Location: Oberstdorf
(47.4188°N, 10.2969°E)
Time: 09:24:39
(UTC+01:00)

ISS - Pass Details

Date: 17 November 2017
Orbit: 402 x 407 km, 51.6° (Epoch: 21 November)

Event Time Altitude Azimuth Distance (km) Brightness Sun altitude
Exits shadow 04:48:21 17° 132° (SE) 1,114 -1.1 -26.5°
Drops below altitude 10° 04:49:11 10° 129° (SE) 1,450 -0.4 -26.4°
Sets 04:51:16 0° 126° (SE) 2,306 0.8 -26.0°
